User: anonymous   Login
Location: Unspecified
(0.0000°N, 0.0000°E)
Time: 02:32:50
(UTC+00:00)
Language:

MetOp-B - Orbit

View from above orbital plane
View from above orbital plane
View from above satellite
View from above satellite

Ground track
Ground track

The orbit data is extracted from the following two-line orbital elements,

1 38771U 12049A   17119.92413669 +.00000011 +00000-0 +25091-4 0  9994
2 38771 098.6832 180.8899 0001653 061.8305 101.5592 14.21497978239420
Epoch (UTC): 29 April 2017 22:10:45
Eccentricity: 0.0001653
inclination: 98.6832°
perigee height: 819 km
apogee height: 821 km
right ascension of ascending node: 180.8899°
argument of perigee: 61.8305°
revolutions per day: 14.21497978
mean anomaly at epoch: 101.5592°
orbit number at epoch: 23942

The dashed part of the orbit path shows where the satellite is in the earth's shadow,  

DLR